DW9799 Weather Reports


Display with metric or nautical units.
time (UTC)temp
F
wind
direction
speed
MPH
gust
MPH
rain 1hr
in
rain 24hr
in
rain mn
in
humidity
%
barometer
mb
20190117135308 6 1 5.0 6.0 0.00 0.00 0.00 77 1020.3
20190117134307 6 354 5.0 6.0 0.00 0.00 0.00 77 1020.0
20190117133305 6 337 4.0 5.0 0.00 0.00 0.00 77 1020.0
20190117132305 6 337 1.0 5.0 0.00 0.00 0.00 77 1020.0
20190117131304 6 337 2.0 5.0 0.00 0.00 0.00 77 1020.0
20190117130303 6 337 4.0 5.0 0.00 0.00 0.00 77 1020.3
20190117125302 6 337 2.0 5.0 0.00 0.00 0.00 77 1020.3
20190117124302 6 337 2.0 5.0 0.00 0.00 0.00 77 1020.7
20190117123301 6 335 4.0 6.0 0.00 0.00 0.00 77 1020.7
20190117122301 7 333 3.0 5.0 0.00 0.00 0.00 78 1020.3
20190117121259 7 333 3.0 6.0 0.00 0.00 0.00 77 1020.3
20190117120259 7 337 3.0 6.0 0.00 0.00 0.00 77 1020.7
20190117115258 7 136 3.0 5.0 0.00 0.00 0.00 77 1020.3
20190117114257 7 136 1.0 4.0 0.00 0.00 0.00 77 1020.7
20190117113256 7 136 1.0 4.0 0.00 0.00 0.00 78 1020.7
20190117112256 7 136 0.0 1.0 0.00 0.00 0.00 78 1020.7
20190117111255 7 136 0.0 2.0 0.00 0.00 0.00 78 1020.7
20190117110254 7 136 1.0 2.0 0.00 0.00 0.00 77 1020.7
20190117105253 6 136 0.0 1.0 0.00 0.00 0.00 77 1021.0
20190117104252 6 136 0.0 2.0 0.00 0.00 0.00 77 1021.3
20190117103251 6 136 0.0 2.0 0.00 0.00 0.00 78 1021.3
20190117102250 6 136 1.0 2.0 0.00 0.00 0.00 78 1021.3
20190117101249 5 136 0.0 4.0 0.00 0.00 0.00 79 1021.3
20190117100248 5 136 2.0 4.0 0.00 0.00 0.00 79 1021.3
20190117095248 4 136 0.0 1.0 0.00 0.00 0.00 79 1021.3
20190117094246 4 136 0.0 2.0 0.00 0.00 0.00 78 1021.3
20190117093245 3 136 0.0 2.0 0.00 0.00 0.00 78 1021.3
20190117092244 3 136 0.0 0.0 0.00 0.00 0.00 77 1021.7
20190117091243 3 136 0.0 0.0 0.00 0.00 0.00 77 1021.7
20190117090243 3 136 0.0 0.0 0.00 0.00 0.00 77 1022.0
20190117085241 2 136 0.0 0.0 0.00 0.00 0.00 76 1022.0
20190117084240 2 136 0.0 0.0 0.00 0.00 0.00 76 1022.4
20190117083239 2 136 0.0 0.0 0.00 0.00 0.00 77 1022.4
20190117082238 2 136 0.0 2.0 0.00 0.00 0.00 76 1022.4
20190117081237 2 136 0.0 4.0 0.00 0.00 0.00 76 1022.4
20190117080237 2 136 1.0 4.0 0.00 0.00 0.00 76 1022.4
20190117075235 2 136 2.0 4.0 0.00 0.00 0.00 76 1022.4
20190117074235 2 136 2.0 4.0 0.00 0.00 0.00 75 1022.7
20190117073234 2 136 0.0 1.0 0.00 0.00 0.00 75 1022.7
20190117072233 2 136 1.0 2.0 0.00 0.00 0.00 75 1022.7
20190117071232 3 136 0.0 1.0 0.00 0.00 0.00 75 1022.7
20190117070231 3 136 0.0 1.0 0.00 0.00 0.00 75 1022.7
20190117065230 3 136 1.0 1.0 0.00 0.00 0.00 74 1022.7
20190117064229 3 136 0.0 0.0 0.00 0.00 0.00 74 1022.7
20190117063228 3 136 0.0 1.0 0.00 0.00 0.00 73 1023.0
20190117062227 3 136 0.0 2.0 0.00 0.00 0.00 74 1023.0
20190117061227 3 136 1.0 2.0 0.00 0.00 0.00 74 1023.4
20190117060226 3 136 0.0 2.0 0.00 0.00 0.00 74 1023.4
20190117055224 3 136 1.0 2.0 0.00 0.00 0.00 74 1023.4
20190117054224 3 136 0.0 0.0 0.00 0.00 0.00 74 1023.4
20190117053223 3 136 0.0 0.0 0.00 0.00 0.00 74 1023.4
20190117052222 3 136 0.0 0.0 0.00 0.00 0.00 74 1023.4
20190117051221 3 136 0.0 0.0 0.00 0.00 0.00 73 1023.4
20190117050221 3 136 0.0 0.0 0.00 0.00 0.00 72 1023.7
20190117045220 4 136 0.0 0.0 0.00 0.00 0.00 72 1023.7
20190117044219 4 136 0.0 1.0 0.00 0.00 0.00 72 1023.7
20190117043218 4 136 0.0 1.0 0.00 0.00 0.00 71 1023.7
20190117042217 5 136 0.0 1.0 0.00 0.00 0.00 71 1024.0
20190117041216 5 136 0.0 0.0 0.00 0.00 0.00 70 1024.0
20190117040216 5 136 0.0 0.0 0.00 0.00 0.00 70 1024.0
20190117035215 5 136 0.0 1.0 0.00 0.00 0.00 70 1024.0
20190117034214 5 136 0.0 1.0 0.00 0.00 0.00 70 1024.0
20190117033213 5 136 0.0 1.0 0.00 0.00 0.00 69 1024.0
20190117032212 6 136 0.0 1.0 0.00 0.00 0.00 69 1024.0
20190117031211 6 136 0.0 2.0 0.00 0.00 0.00 69 1024.0
20190117030210 6 136 0.0 2.0 0.00 0.00 0.00 69 1024.0
20190117025209 6 136 0.0 2.0 0.00 0.00 0.00 69 1024.0
20190117024208 6 136 1.0 2.0 0.00 0.00 0.00 68 1024.0
20190117023207 6 136 1.0 2.0 0.00 0.00 0.00 68 1024.0
20190117022206 7 136 0.0 0.0 0.00 0.00 0.00 68 1024.4
20190117021205 7 136 0.0 2.0 0.00 0.00 0.00 68 1024.4
20190117020204 7 136 1.0 2.0 0.00 0.00 0.00 68 1024.7
20190117015203 7 136 0.0 5.0 0.00 0.00 0.00 68 1024.4
20190117014202 7 136 0.0 5.0 0.00 0.00 0.00 68 1024.7
20190117013201 7 136 0.0 4.0 0.00 0.00 0.00 68 1024.7
20190117012200 7 136 1.0 4.0 0.00 0.00 0.00 67 1024.7
20190117011159 7 136 1.0 1.0 0.00 0.00 0.00 66 1024.7
20190117010158 7 136 0.0 0.0 0.00 0.00 0.00 66 1025.1
20190117005157 8 136 0.0 0.0 0.00 0.00 0.00 66 1025.1
20190117004157 8 136 0.0 1.0 0.00 0.00 0.00 65 1025.1
20190117003156 8 136 1.0 1.0 0.00 0.00 0.00 65 1025.1
20190117002153 9 136 1.0 1.0 0.00 0.00 0.00 64 1025.1
20190117001152 9 136 1.0 1.0 0.00 0.00 0.00 63 1025.1
20190117000152 10 136 0.0 0.0 0.00 0.00 0.00 62 1025.1
20190116235151 10 136 0.0 0.0 0.00 0.00 0.00 62 1025.1
20190116234150 11 136 0.0 0.0 0.00 0.00 0.00 61 1025.1
20190116233149 11 136 0.0 0.0 0.00 0.00 0.00 60 1025.1
20190116232148 12 136 0.0 4.0 0.00 0.00 0.00 59 1025.4
20190116231148 12 136 0.0 4.0 0.00 0.00 0.00 59 1025.4
20190116230147 12 136 2.0 5.0 0.00 0.00 0.00 58 1025.4
20190116225146 13 136 2.0 5.0 0.00 0.00 0.00 57 1025.4
20190116224145 13 136 2.0 5.0 0.00 0.00 0.00 56 1025.4
20190116223144 13 131 3.0 8.0 0.00 0.00 0.00 55 1025.1
20190116222142 14 78 2.0 8.0 0.00 0.00 0.00 54 1025.1
20190116221142 14 93 2.0 8.0 0.00 0.00 0.00 53 1025.1
20190116220141 15 84 4.0 8.0 0.00 0.00 0.00 52 1025.1
20190116215140 15 131 3.0 8.0 0.00 0.00 0.00 53 1025.4
20190116214139 16 71 5.0 8.0 0.00 0.00 0.00 52 1025.4
20190116213138 16 56 5.0 9.0 0.00 0.00 0.00 53 1025.4
20190116212137 16 72 3.0 9.0 0.00 0.00 0.00 53 1025.4
20190116211136 16 68 4.0 9.0 0.00 0.00 0.00 53 1025.4
20190116210135 15 89 3.0 9.0 0.00 0.00 0.00 51 1025.7
20190116205134 15 79 4.0 8.0 0.00 0.00 0.00 52 1025.7
20190116204134 15 81 3.0 8.0 0.00 0.00 0.00 55 1025.4
20190116203133 14 50 4.0 10.0 0.00 0.00 0.00 58 1025.4
20190116202132 14 59 3.0 10.0 0.00 0.00 0.00 59 1025.4
20190116201130 13 59 2.0 8.0 0.00 0.00 0.00 62 1025.7
20190116200130 12 107 4.0 8.0 0.00 0.00 0.00 63 1025.7
20190116195129 12 49 5.0 8.0 0.00 0.00 0.00 64 1025.7
20190116194116 12 51 4.0 8.0 0.00 0.00 0.00 64 1026.1
20190116193115 12 35 5.0 9.0 0.00 0.00 0.00 64 1026.1
20190116192114 12 47 6.0 9.0 0.00 0.00 0.00 64 1026.1
20190116191113 12 45 6.0 8.0 0.00 0.00 0.00 63 1026.1
20190116190112 12 50 5.0 8.0 0.00 0.00 0.00 64 1026.8
20190116185111 12 46 3.0 10.0 0.00 0.00 0.00 64 1026.8
20190116184110 12 49 7.0 10.0 0.00 0.00 0.00 65 1027.1
20190116183110 11 46 3.0 8.0 0.00 0.00 0.00 66 1027.1
20190116182109 11 70 2.0 8.0 0.00 0.00 0.00 66 1027.4
20190116181107 10 58 3.0 6.0 0.00 0.00 0.00 68 1027.8
20190116180106 9 348 3.0 7.0 0.00 0.00 0.00 70 1027.8
20190116175105 8 32 3.0 7.0 0.00 0.00 0.00 71 1027.8
20190116174104 8 49 4.0 9.0 0.00 0.00 0.00 71 1028.1
20190116173103 7 47 7.0 9.0 0.00 0.00 0.00 72 1028.1
20190116172102 6 28 2.0 8.0 0.00 0.00 0.00 74 1028.1
20190116171101 5 29 5.0 8.0 0.00 0.00 0.00 75 1028.4
20190116170101 5 43 5.0 9.0 0.00 0.00 0.00 74 1028.4
20190116165100 4 50 6.0 9.0 0.00 0.00 0.00 75 1028.4
20190116164059 4 40 4.0 9.0 0.00 0.00 0.00 75 1028.4
20190116163058 4 39 6.0 8.0 0.00 0.00 0.00 75 1028.4
20190116162057 3 57 3.0 8.0 0.00 0.00 0.00 76 1028.1
20190116161052 3 53 4.0 9.0 0.00 0.00 0.00 76 1028.1
20190116160047 2 26 7.0 9.0 0.00 0.00 0.00 77 1028.1
20190116155045 2 39 6.0 9.0 0.00 0.00 0.00 77 1028.1
20190116154045 2 31 6.0 8.0 0.00 0.00 0.00 80 1028.1
20190116153043 1 356 5.0 6.0 0.00 0.00 0.00 80 1028.1
20190116152042 0 353 4.0 6.0 0.00 0.00 0.00 80 1028.1
20190116151041 -1 7 4.0 6.0 0.00 0.00 0.00 81 1028.1
20190116150040 -1 17 3.0 6.0 0.00 0.00 0.00 81 1027.8
20190116145040 -2 346 5.0 7.0 0.00 0.00 0.00 80 1027.8
20190116144039 -2 356 4.0 7.0 0.00 0.00 0.00 81 1027.8
20190116143038 -2 346 2.0 6.0 0.00 0.00 0.00 81 1027.8
20190116142037 -2 342 3.0 6.0 0.00 0.00 0.00 81 1027.4
20190116141036 -2 336 3.0 7.0 0.00 0.00 0.00 80 1027.4
20190116140035 -2 6 3.0 7.0 0.00 0.00 0.00 80 1027.1